When you browse on this site, cookies collect data to enhance your experience and personalize the content and advertising you see.
Visit our Privacy Policy to learn more. By continuing to use the site, you agree to this use of cookies and data.
  • în România
  • Lista ţărilor
  • Pe 7 zile
  • Temperatura apei
  • Meteo pe hartă
  • Widget-uri
  • user-avatar
    Intrare

    Meteo pe oră la Reading

    Astăzi, 2 Iunie, Marţi

    Timp Temperatura Precipitaţii Vânt Presiune Umiditate
    00:00 +13°C° 0 mm 2 m/s 763 mmHg 89%
    01:00 +13°C° 0 mm 2 m/s 763 mmHg 88%
    02:00 +12°C° 0 mm 2 m/s 762 mmHg 87%
    03:00 +10°C° 0 mm 2 m/s 762 mmHg 86%
    04:00 +12°C° 0 mm 2 m/s 762 mmHg 83%
    05:00 +11°C° 0 mm 3 m/s 762 mmHg 81%
    06:00 +12°C° 0 mm 3 m/s 762 mmHg 78%
    07:00 +14°C° 0 mm 3 m/s 762 mmHg 72%
    08:00 +16°C° 0 mm 3 m/s 762 mmHg 66%
    09:00 +18°C° 0 mm 3 m/s 762 mmHg 60%
    10:00 +19°C° 0 mm 3 m/s 761 mmHg 57%
    11:00 +20°C° 0 mm 3 m/s 761 mmHg 53%
    12:00 +21°C° 0 mm 3 m/s 761 mmHg 50%
    13:00 +21°C° 0 mm 3 m/s 760 mmHg 50%
    14:00 +21°C° 0 mm 3 m/s 760 mmHg 51%
    15:00 +21°C° 0 mm 3 m/s 759 mmHg 52%
    16:00 +21°C° 0 mm 3 m/s 759 mmHg 56%
    17:00 +21°C° 0 mm 3 m/s 758 mmHg 60%
    18:00 +20°C° 0 mm 2 m/s 758 mmHg 65%
    19:00 +18°C° 0 mm 2 m/s 758 mmHg 68%
    20:00 +16°C° 0 mm 1 m/s 757 mmHg 72%
    21:00 +13°C° 0 mm 0 m/s 757 mmHg 76%
    22:00 +14°C° 0 mm 1 m/s 757 mmHg 76%
    23:00 +14°C° 0 mm 1 m/s 756 mmHg 76%

    Mâine, 3 Iunie, Miercuri

    Timp Temperatura Precipitaţii Vânt Presiune Umiditate
    00:00 +14°C° 0 mm 1 m/s 756 mmHg 76%
    01:00 +14°C° 0 mm 1 m/s 755 mmHg 78%
    02:00 +14°C° 0 mm 1 m/s 755 mmHg 80%
    03:00 +14°C° 0 mm 1 m/s 754 mmHg 82%
    04:00 +15°C° 0.2 mm 1 m/s 754 mmHg 83%
    05:00 +15°C° 0.2 mm 1 m/s 753 mmHg 83%
    06:00 +15°C° 0.2 mm 1 m/s 753 mmHg 84%
    07:00 +16°C° 0 mm 2 m/s 753 mmHg 81%
    08:00 +16°C° 0 mm 2 m/s 753 mmHg 78%
    09:00 +17°C° 0 mm 2 m/s 752 mmHg 76%
    10:00 +16°C° 0.2 mm 3 m/s 752 mmHg 78%
    11:00 +16°C° 0.2 mm 3 m/s 752 mmHg 80%
    12:00 +16°C° 0.2 mm 3 m/s 752 mmHg 82%
    13:00 +15°C° 0.1 mm 4 m/s 752 mmHg 82%
    14:00 +15°C° 0.1 mm 4 m/s 752 mmHg 81%
    15:00 +15°C° 0.1 mm 4 m/s 751 mmHg 81%
    16:00 +14°C° 0.1 mm 5 m/s 751 mmHg 81%
    17:00 +14°C° 0.1 mm 5 m/s 751 mmHg 82%
    18:00 +13°C° 0.1 mm 5 m/s 751 mmHg 82%
    19:00 +13°C° 0 mm 5 m/s 751 mmHg 83%
    20:00 +12°C° 0 mm 5 m/s 752 mmHg 84%
    21:00 +11°C° 0 mm 4 m/s 752 mmHg 85%
    22:00 +11°C° 0 mm 4 m/s 752 mmHg 87%
    23:00 +10°C° 0 mm 4 m/s 751 mmHg 89%

    Poimâine, 4 Iunie, Joi

    Timp Temperatura Precipitaţii Vânt Presiune Umiditate
    00:00 +10°C° 0 mm 4 m/s 751 mmHg 91%
    01:00 +8°C° 0 mm 4 m/s 751 mmHg 92%
    02:00 +8°C° 0 mm 4 m/s 751 mmHg 94%
    03:00 +7°C° 0 mm 4 m/s 750 mmHg 95%
    04:00 +8°C° 0.1 mm 4 m/s 750 mmHg 94%
    05:00 +8°C° 0.1 mm 5 m/s 750 mmHg 93%
    06:00 +9°C° 0.1 mm 5 m/s 750 mmHg 91%
    07:00 +10°C° 0 mm 5 m/s 750 mmHg 86%
    08:00 +12°C° 0 mm 5 m/s 750 mmHg 81%
    09:00 +13°C° 0 mm 4 m/s 750 mmHg 75%
    10:00 +13°C° 0.1 mm 4 m/s 750 mmHg 71%
    11:00 +14°C° 0.1 mm 4 m/s 750 mmHg 66%
    12:00 +15°C° 0.1 mm 4 m/s 750 mmHg 61%
    13:00 +15°C° 0.1 mm 4 m/s 749 mmHg 64%
    14:00 +14°C° 0.1 mm 3 m/s 749 mmHg 68%
    15:00 +14°C° 0.1 mm 3 m/s 749 mmHg 71%
    16:00 +13°C° 0.4 mm 3 m/s 749 mmHg 75%
    17:00 +13°C° 0.4 mm 3 m/s 748 mmHg 79%
    18:00 +13°C° 0.4 mm 2 m/s 748 mmHg 83%
    19:00 +11°C° 0 mm 3 m/s 748 mmHg 86%
    20:00 +10°C° 0 mm 3 m/s 748 mmHg 89%
    21:00 +9°C° 0 mm 3 m/s 748 mmHg 91%
    22:00 +9°C° 0 mm 3 m/s 748 mmHg 92%
    23:00 +8°C° 0 mm 3 m/s 748 mmHg 93%

    5 Iunie, Vineri

    Timp Temperatura Precipitaţii Vânt Presiune Umiditate
    00:00 +8°C° 0 mm 3 m/s 747 mmHg 94%
    01:00 +8°C° 0 mm 3 m/s 747 mmHg 95%
    02:00 +8°C° 0 mm 3 m/s 747 mmHg 95%
    03:00 +7°C° 0 mm 4 m/s 746 mmHg 95%
    04:00 +7°C° 0 mm 4 m/s 746 mmHg 93%
    05:00 +8°C° 0 mm 4 m/s 746 mmHg 90%
    06:00 +8°C° 0 mm 5 m/s 746 mmHg 88%
    07:00 +10°C° 0 mm 5 m/s 746 mmHg 81%
    08:00 +11°C° 0 mm 6 m/s 746 mmHg 73%
    09:00 +13°C° 0 mm 6 m/s 746 mmHg 66%
    10:00 +14°C° 0.1 mm 6 m/s 746 mmHg 65%
    11:00 +14°C° 0.1 mm 6 m/s 746 mmHg 63%
    12:00 +15°C° 0.1 mm 7 m/s 746 mmHg 62%
    13:00 +14°C° 0 mm 7 m/s 745 mmHg 64%
    14:00 +14°C° 0 mm 6 m/s 745 mmHg 67%
    15:00 +14°C° 0 mm 6 m/s 745 mmHg 69%
    16:00 +13°C° 0.2 mm 6 m/s 745 mmHg 76%
    17:00 +12°C° 0.2 mm 5 m/s 744 mmHg 83%
    18:00 +9°C° 0.2 mm 5 m/s 744 mmHg 89%
    19:00 +10°C° 0.1 mm 4 m/s 744 mmHg 90%
    20:00 +8°C° 0.1 mm 4 m/s 745 mmHg 92%
    21:00 +8°C° 0.1 mm 4 m/s 745 mmHg 93%
    22:00 +7°C° 0 mm 4 m/s 745 mmHg 93%
    23:00 +6°C° 0 mm 4 m/s 746 mmHg 92%

    6 Iunie, Sâmbătă

    Timp Temperatura Precipitaţii Vânt Presiune Umiditate
    00:00 +5°C° 0 mm 4 m/s 746 mmHg 92%
    01:00 +5°C° 0 mm 4 m/s 746 mmHg 91%
    02:00 +4°C° 0 mm 4 m/s 746 mmHg 90%
    03:00 +4°C° 0 mm 4 m/s 747 mmHg 89%
    04:00 +5°C° 0 mm 5 m/s 747 mmHg 86%
    05:00 +5°C° 0 mm 5 m/s 747 mmHg 84%
    06:00 +6°C° 0 mm 5 m/s 748 mmHg 81%
    07:00 +7°C° 0 mm 6 m/s 748 mmHg 74%
    08:00 +9°C° 0 mm 6 m/s 748 mmHg 68%
    09:00 +10°C° 0 mm 7 m/s 748 mmHg 61%
    10:00 +11°C° 0.1 mm 7 m/s 748 mmHg 60%
    11:00 +11°C° 0.1 mm 7 m/s 748 mmHg 58%
    12:00 +11°C° 0.1 mm 7 m/s 748 mmHg 56%
    13:00 +11°C° 0.1 mm 7 m/s 748 mmHg 56%
    14:00 +12°C° 0.1 mm 7 m/s 748 mmHg 56%
    15:00 +12°C° 0.1 mm 7 m/s 748 mmHg 56%
    16:00 +11°C° 0.1 mm 7 m/s 748 mmHg 59%
    17:00 +11°C° 0.1 mm 6 m/s 748 mmHg 63%
    18:00 +10°C° 0.1 mm 6 m/s 748 mmHg 67%
    19:00 +9°C° 0 mm 6 m/s 748 mmHg 71%
    20:00 +8°C° 0 mm 5 m/s 748 mmHg 76%
    21:00 +6°C° 0 mm 4 m/s 748 mmHg 80%
    22:00 +6°C° 0 mm 5 m/s 748 mmHg 83%
    23:00 +6°C° 0 mm 5 m/s 748 mmHg 85%

    7 Iunie, Duminică

    Timp Temperatura Precipitaţii Vânt Presiune Umiditate
    00:00 +6°C° 0 mm 5 m/s 748 mmHg 88%
    01:00 +5°C° 0 mm 5 m/s 748 mmHg 88%
    02:00 +5°C° 0 mm 5 m/s 747 mmHg 89%
    03:00 +5°C° 0 mm 5 m/s 747 mmHg 89%
    04:00 +6°C° 0 mm 5 m/s 747 mmHg 84%
    05:00 +7°C° 0 mm 6 m/s 747 mmHg 80%
    06:00 +8°C° 0 mm 6 m/s 746 mmHg 75%
    07:00 +8°C° 0.3 mm 7 m/s 746 mmHg 79%
    08:00 +8°C° 0.3 mm 7 m/s 746 mmHg 83%
    09:00 +9°C° 0.3 mm 8 m/s 746 mmHg 87%
    10:00 +10°C° 0.4 mm 8 m/s 746 mmHg 85%
    11:00 +11°C° 0.4 mm 7 m/s 746 mmHg 82%
    12:00 +14°C° 0.4 mm 7 m/s 746 mmHg 80%
    13:00 +14°C° 0.7 mm 7 m/s 746 mmHg 78%
    14:00 +15°C° 0.7 mm 7 m/s 746 mmHg 76%
    15:00 +15°C° 0.7 mm 7 m/s 746 mmHg 74%
    16:00 +14°C° 0.7 mm 7 m/s 746 mmHg 78%
    17:00 +14°C° 0.7 mm 6 m/s 746 mmHg 82%
    18:00 +13°C° 0.7 mm 6 m/s 746 mmHg 86%
    19:00 +12°C° 0.4 mm 5 m/s 747 mmHg 88%
    20:00 +11°C° 0.4 mm 4 m/s 747 mmHg 91%
    21:00 +10°C° 0.4 mm 3 m/s 748 mmHg 93%
    22:00 +9°C° 0.1 mm 3 m/s 748 mmHg 93%
    23:00 +9°C° 0.1 mm 3 m/s 748 mmHg 94%
    Arată mai mult